Regional Weather Roundup
Issued by NWS Binghamton, NY

Home | Current Version | Previous Version | Text Only | Print | Product List | Glossary On
Versions: 1 2 3 4 5 6 7 8 9 10 11 12 13 14 15 16 17 18 19 20 21 22 23 24 25 26 27 28 29 30 31 32 33 34 35 36 37 38 39 40 41 42 43 44 45 46 47 48 49 50
000
ASUS41 KBGM 291110
RWRBGM

REGIONAL WEATHER ROUNDUP
NATIONAL WEATHER SERVICE BINGHAMTON NY
700 AM EDT SAT JUL 29 2017

Note: "fair" indicates few or no clouds below 12,000 feet with no
significant weather and/or obstructions to visibility.

* = Station(s) that does not report precipitation, such as rain,
snow, etc, also no thunder or fog.

NYZ009-015>018-022>025-036-037-044>046-055>057-062-291200
...Central New York...

CITY           SKY/WX    TMP DP  RH WIND       PRES   REMARKS
Binghamton     CLOUDY    54  51  90 NE9       29.93R
Cortland       FAIR      52  52 100 CALM      29.96S
Dansville      PTCLDY    52  50  93 CALM      29.98R
Elmira         CLOUDY    57  53  86 E5        29.93S
Seneca Falls   SUNNY     54  52  94 CALM      29.97R
Ithaca         CLOUDY    52  52 100 CALM      29.96S
Hamilton       SUNNY     54  50  87 CALM      29.96S
Hornell        CLEAR     48  48 100 CALM      30.01S
Monticello     NOT AVBL
Norwich        SUNNY     54  52  94 N5        29.95S
Oneonta        SUNNY     55 N/A N/A NE5       29.94S
Penn Yan       CLOUDY    57  49  74 CALM      29.97R
Rome           CLOUDY    53  51  93 CALM      29.96R
Sidney         SUNNY     55  55 100 CALM      29.93R
Syracuse       PTSUNNY   54  52  93 CALM      29.95R
$$

PAZ038>040-043-044-047-048-072-291200
...Northeast Pennsylvania...

CITY           SKY/WX    TMP DP  RH WIND       PRES   REMARKS
Hazleton         N/A     63  55  77 N6        29.89R
Scranton       CLOUDY    65  56  72 NE5       29.86R
$$
&&
KEY
WCI = Wind Chill Index
VSB = Visibility
HX  = Heat Index
$$



USA.gov is the U.S. government's official web portal to all federal, state and local government web resources and services.